Location: Warszawa
(52.2500°N, 21.0000°E)
Time: 16:23:20
(UTC+01:00)

Altair - All Passes

Search period start: 27 January 2023 00:00
Search period end: 06 February 2023 00:00
Orbit: 1501 x 1683 km, 47.2° (Epoch: 26 January)

Date Brightness Start Highest point End Pass type
(mag) Time Alt. Az. Time Alt. Az. Time Alt. Az.
27 Jan - 01:15:01 10° W 01:24:52 60° SSW 01:34:45 10° ESE visible
27 Jan - 03:19:49 10° W 03:28:27 33° SW 03:37:02 10° SSE visible
27 Jan - 18:43:54 10° SSE 18:48:56 15° SE 18:54:03 10° E visible
27 Jan - 20:42:32 10° SSW 20:51:30 41° SSE 21:00:42 10° E visible
27 Jan - 22:45:32 10° WSW 22:55:22 65° S 23:05:23 10° E visible
28 Jan - 00:49:48 10° W 00:59:41 61° SSW 01:09:37 10° ESE visible
28 Jan - 02:54:32 10° W 03:03:21 35° SW 03:12:07 10° SSE visible
28 Jan - 05:03:15 10° WSW 05:05:40 11° WSW 05:08:05 10° SW visible
28 Jan - 18:19:38 10° SSE 18:23:56 14° SE 18:28:17 10° E visible
28 Jan - 20:17:34 10° SSW 20:26:23 39° SE 20:35:26 10° E visible
28 Jan - 22:20:23 10° WSW 22:30:10 64° SSE 22:40:10 10° E visible
29 Jan - 00:24:37 10° W 00:34:29 63° SSW 00:44:27 10° ESE night (unlit)
29 Jan - 02:29:17 10° W 02:38:14 38° SW 02:47:11 10° SSE visible
29 Jan - 04:36:57 10° W 04:40:40 13° WSW 04:44:24 10° SW visible
29 Jan - 17:55:37 10° SE 17:58:57 12° ESE 18:02:18 10° ESE visible
29 Jan - 19:52:39 10° SSW 20:01:17 37° SE 20:10:10 10° E visible
29 Jan - 21:55:15 10° WSW 22:04:59 63° SSE 22:14:57 10° E visible
29 Jan - 23:59:25 10° W 00:09:18 64° SSW 00:19:17 10° ESE night (unlit)
30 Jan - 02:04:02 10° W 02:13:07 40° SW 02:22:13 10° SSE visible
30 Jan - 04:11:03 10° W 04:15:40 14° SW 04:20:17 10° SSW visible
30 Jan - 17:32:11 10° SE 17:33:58 11° ESE 17:35:46 10° ESE visible
30 Jan - 19:27:44 10° SSW 19:36:11 35° SE 19:44:54 10° E visible
30 Jan - 21:30:08 10° WSW 21:39:48 61° SSE 21:49:44 10° E visible
30 Jan - 23:34:14 10° W 23:44:06 65° S 23:54:07 10° ESE night (unlit)
31 Jan - 01:38:48 10° W 01:48:00 42° SSW 01:57:14 10° SSE visible
31 Jan - 03:45:21 10° W 03:50:40 16° SW 03:55:59 10° SSW visible
31 Jan - 19:02:50 10° SSW 19:11:07 33° SE 19:19:37 10° E visible
31 Jan - 21:05:01 10° WSW 21:14:37 60° SSE 21:24:30 10° E visible
31 Jan - 23:09:03 10° W 23:18:55 66° S 23:28:56 10° ESE visible
01 Feb - 01:13:34 10° W 01:22:53 44° SSW 01:32:13 10° SE night (unlit)
01 Feb - 03:19:45 10° W 03:25:38 17° SW 03:31:32 10° SSW visible
01 Feb - 18:37:58 10° SSW 18:46:02 31° SE 18:54:19 10° E visible
01 Feb - 20:39:56 10° WSW 20:49:27 58° SSE 20:59:17 10° E visible
01 Feb - 22:43:52 10° W 22:53:43 66° S 23:03:45 10° ESE visible
02 Feb - 00:48:22 10° W 00:57:44 46° SSW 01:07:11 10° SE night (unlit)
02 Feb - 02:54:14 10° W 03:00:37 19° SW 03:06:59 10° S night (unlit)
02 Feb - 18:13:09 10° SSW 18:20:58 29° SE 18:29:00 10° E visible
02 Feb - 20:14:50 10° SW 20:24:17 57° SSE 20:34:03 10° E visible
02 Feb - 22:18:43 10° W 22:28:31 67° S 22:38:33 10° ESE visible
03 Feb - 00:23:09 10° W 00:32:35 48° SSW 00:42:07 10° SE night (unlit)
03 Feb - 02:28:46 10° W 02:35:34 21° SW 02:42:23 10° S night (unlit)
03 Feb - 17:48:22 10° S 17:55:54 27° SE 18:03:40 10° E visible
03 Feb - 19:49:45 10° SW 19:59:08 55° SSE 20:08:49 10° E visible
03 Feb - 21:53:33 10° W 22:03:19 67° S 22:13:21 10° ESE visible
03 Feb - 23:57:57 10° W 00:07:26 50° SSW 00:17:03 10° SE visible
04 Feb - 02:03:22 10° W 02:10:31 22° SW 02:17:42 10° S night (unlit)
04 Feb - 17:23:37 10° S 17:30:52 25° SE 17:38:19 10° E visible
04 Feb - 19:24:42 10° SW 19:33:59 53° SSE 19:43:36 10° E visible
04 Feb - 21:28:23 10° W 21:38:08 67° S 21:48:10 10° ESE visible
04 Feb - 23:32:45 10° W 23:42:17 52° SSW 23:51:58 10° SE visible
05 Feb - 01:37:59 10° W 01:45:28 24° SW 01:52:58 10° S night (unlit)
05 Feb - 16:58:54 10° S 17:05:50 23° SE 17:12:56 10° E visible
05 Feb - 18:59:39 10° SW 19:08:50 51° SSE 19:18:21 10° E visible
05 Feb - 21:03:13 10° WSW 21:12:56 67° S 21:22:57 10° E visible
05 Feb - 23:07:33 10° W 23:17:08 54° SSW 23:26:51 10° SE visible
